Time,TemperatureF,DewpointF,PressureIn,WindDirection,WindDirectionDegrees,WindSpeedMPH,WindSpeedGustMPH,Humidity,HourlyPrecipIn,Conditions,Clouds,dailyrainin,SoftwareType,DateUTC
2013-02-19 00:00:00,27.4,19.5,29.54,WSW,248,0.7,1.6,72,0.00,,,0.00,WUHU216HW,2013-02-19 05:00:00,
2013-02-19 00:05:00,27.2,19.4,29.54,WSW,248,1.8,3.1,72,0.00,,,0.00,WUHU216HW,2013-02-19 05:05:00,
2013-02-19 00:10:00,27.2,19.4,29.53,WSW,248,1.3,3.1,72,0.00,,,0.00,WUHU216HW,2013-02-19 05:10:00,
2013-02-19 00:15:00,27.7,19.9,29.53,SSE,158,2.0,2.5,72,0.00,,,0.00,WUHU216HW,2013-02-19 05:15:00,
2013-02-19 00:20:00,27.9,20.1,29.53,SW,225,0.4,2.5,72,0.00,,,0.00,WUHU216HW,2013-02-19 05:20:00,
2013-02-19 00:25:00,27.9,20.1,29.53,SE,135,0.4,2.0,72,0.00,,,0.00,WUHU216HW,2013-02-19 05:25:00,
2013-02-19 00:30:00,27.5,19.7,29.53,NE,45,0.9,2.5,72,0.00,,,0.00,WUHU216HW,2013-02-19 05:30:00,
2013-02-19 00:35:00,27.0,19.2,29.52,NE,45,0.0,2.7,72,0.00,,,0.00,WUHU216HW,2013-02-19 05:35:00,
2013-02-19 00:40:00,26.8,19.3,29.53,SW,225,1.1,2.7,73,0.00,,,0.00,WUHU216HW,2013-02-19 05:40:00,
2013-02-19 00:45:00,27.0,19.8,29.52,SE,135,0.4,2.0,74,0.00,,,0.00,WUHU216HW,2013-02-19 05:45:00,
2013-02-19 00:50:00,27.4,20.2,29.52,SW,225,2.5,2.5,74,0.00,,,0.00,WUHU216HW,2013-02-19 05:50:00,
2013-02-19 00:55:00,27.5,20.6,29.52,SW,225,1.1,2.5,75,0.00,,,0.00,WUHU216HW,2013-02-19 05:55:00,
2013-02-19 01:00:00,27.5,20.6,29.53,SW,225,1.6,2.5,75,0.00,,,0.00,WUHU216HW,2013-02-19 06:00:00,
2013-02-19 01:05:00,27.7,20.5,29.53,ESE,113,1.6,2.5,74,0.00,,,0.00,WUHU216HW,2013-02-19 06:05:00,
2013-02-19 01:10:00,27.5,20.6,29.53,SE,135,2.5,4.0,75,0.00,,,0.00,WUHU216HW,2013-02-19 06:10:00,
2013-02-19 01:15:00,27.4,20.2,29.53,SE,135,2.0,4.0,74,0.00,,,0.00,WUHU216HW,2013-02-19 06:15:00,
2013-02-19 01:20:00,27.2,20.3,29.53,SSE,158,0.9,3.6,75,0.00,,,0.00,WUHU216HW,2013-02-19 06:20:00,
2013-02-19 01:25:00,27.0,19.8,29.53,WSW,248,1.3,2.5,74,0.00,,,0.00,WUHU216HW,2013-02-19 06:25:00,
2013-02-19 01:30:00,26.3,19.1,29.53,SW,225,2.2,2.2,74,0.00,,,0.00,WUHU216HW,2013-02-19 06:30:00,
2013-02-19 01:35:00,26.6,19.7,29.53,SSE,158,2.5,2.5,75,0.00,,,0.00,WUHU216HW,2013-02-19 06:35:00,
2013-02-19 01:40:00,27.0,20.1,29.52,SSE,158,1.8,2.5,75,0.00,,,0.00,WUHU216HW,2013-02-19 06:40:00,
2013-02-19 01:45:00,27.0,20.1,29.52,SSE,158,1.8,2.7,75,0.00,,,0.00,WUHU216HW,2013-02-19 06:45:00,
2013-02-19 01:50:00,27.2,20.3,29.52,SE,135,1.8,2.7,75,0.00,,,0.00,WUHU216HW,2013-02-19 06:50:00,
2013-02-19 01:55:00,27.4,20.4,29.51,SE,135,1.6,2.5,75,0.00,,,0.00,WUHU216HW,2013-02-19 06:55:00,
2013-02-19 02:00:00,27.4,20.4,29.51,SSE,158,1.1,2.2,75,0.00,,,0.00,WUHU216HW,2013-02-19 07:00:00,
2013-02-19 02:05:00,27.5,20.6,29.50,SSW,203,3.6,3.6,75,0.00,,,0.00,WUHU216HW,2013-02-19 07:05:00,
2013-02-19 02:10:00,27.9,21.2,29.50,SW,225,2.5,3.6,76,0.00,,,0.00,WUHU216HW,2013-02-19 07:10:00,
2013-02-19 02:15:00,28.1,21.4,29.50,SSW,203,3.1,3.6,76,0.00,,,0.00,WUHU216HW,2013-02-19 07:15:00,
2013-02-19 02:20:00,28.4,21.5,29.49,SSW,203,3.6,4.3,75,0.00,,,0.00,WUHU216HW,2013-02-19 07:20:00,
2013-02-19 02:25:00,28.8,22.1,29.49,SSE,158,2.5,4.3,76,0.00,,,0.00,WUHU216HW,2013-02-19 07:25:00,
2013-02-19 02:30:00,28.8,21.9,29.49,WSW,248,2.2,4.3,75,0.00,,,0.00,WUHU216HW,2013-02-19 07:30:00,
2013-02-19 02:35:00,29.5,22.5,29.49,SSW,203,2.5,4.0,75,0.00,,,0.00,WUHU216HW,2013-02-19 07:35:00,
2013-02-19 02:40:00,30.4,24.0,29.48,SSW,203,3.4,4.0,77,0.00,,,0.00,WUHU216HW,2013-02-19 07:40:00,
2013-02-19 02:45:00,31.1,24.1,29.48,SSE,158,2.9,4.7,75,0.00,,,0.00,WUHU216HW,2013-02-19 07:45:00,
2013-02-19 02:50:00,31.3,24.3,29.48,SSW,203,3.1,4.9,75,0.00,,,0.00,WUHU216HW,2013-02-19 07:50:00,
2013-02-19 02:55:00,31.5,24.1,29.48,SW,225,4.0,4.9,74,0.00,,,0.00,WUHU216HW,2013-02-19 07:55:00,
2013-02-19 03:00:00,31.7,24.3,29.47,SSE,158,1.8,4.9,74,0.00,,,0.00,WUHU216HW,2013-02-19 08:00:00,
2013-02-19 03:05:00,31.7,24.3,29.46,SE,135,2.0,4.3,74,0.00,,,0.00,WUHU216HW,2013-02-19 08:05:00,
2013-02-19 03:10:00,31.3,23.9,29.46,SE,135,2.2,2.5,74,0.00,,,0.00,WUHU216HW,2013-02-19 08:10:00,
2013-02-19 03:15:00,31.3,23.9,29.45,SSE,158,1.8,3.1,74,0.00,,,0.00,WUHU216HW,2013-02-19 08:15:00,
2013-02-19 03:20:00,31.5,24.1,29.46,SSW,203,2.7,3.1,74,0.00,,,0.00,WUHU216HW,2013-02-19 08:20:00,
2013-02-19 03:25:00,31.9,24.5,29.46,SSW,203,3.6,4.0,74,0.00,,,0.00,WUHU216HW,2013-02-19 08:25:00,
2013-02-19 03:30:00,32.6,25.2,29.46,SW,225,2.7,4.7,74,0.00,,,0.00,WUHU216HW,2013-02-19 08:30:00,
2013-02-19 03:35:00,32.9,25.2,29.46,SSW,203,2.9,5.4,73,0.00,,,0.00,WUHU216HW,2013-02-19 08:35:00,
2013-02-19 03:40:00,33.1,25.4,29.46,SW,225,2.5,5.4,73,0.00,,,0.00,WUHU216HW,2013-02-19 08:40:00,
2013-02-19 03:45:00,33.3,25.2,29.45,SE,135,2.2,3.6,72,0.00,,,0.00,WUHU216HW,2013-02-19 08:45:00,
2013-02-19 03:50:00,33.1,25.0,29.44,SW,225,1.8,2.7,72,0.00,,,0.00,WUHU216HW,2013-02-19 08:50:00,
2013-02-19 03:55:00,32.8,24.7,29.43,SSW,203,0.4,2.5,72,0.00,,,0.00,WUHU216HW,2013-02-19 08:55:00,
2013-02-19 04:00:00,32.6,24.6,29.43,SW,225,1.6,2.5,72,0.00,,,0.00,WUHU216HW,2013-02-19 09:00:00,
2013-02-19 04:05:00,32.8,24.7,29.43,SW,225,3.4,3.6,72,0.00,,,0.00,WUHU216HW,2013-02-19 09:05:00,
2013-02-19 04:10:00,32.8,24.7,29.42,SE,135,1.1,3.6,72,0.00,,,0.00,WUHU216HW,2013-02-19 09:10:00,
2013-02-19 04:15:00,32.8,24.7,29.42,SE,135,1.1,3.4,72,0.00,,,0.00,WUHU216HW,2013-02-19 09:15:00,
2013-02-19 04:20:00,32.6,24.6,29.42,WSW,248,1.3,2.0,72,0.00,,,0.00,WUHU216HW,2013-02-19 09:20:00,
2013-02-19 04:25:00,32.4,24.4,29.42,SE,135,1.1,2.0,72,0.00,,,0.00,WUHU216HW,2013-02-19 09:25:00,
2013-02-19 04:30:00,32.2,24.2,29.42,SE,135,0.9,1.8,72,0.00,,,0.00,WUHU216HW,2013-02-19 09:30:00,
2013-02-19 04:35:00,32.2,24.2,29.41,SE,135,0.4,1.8,72,0.00,,,0.00,WUHU216HW,2013-02-19 09:35:00,
2013-02-19 04:40:00,32.2,24.2,29.41,SW,225,2.2,2.5,72,0.00,,,0.00,WUHU216HW,2013-02-19 09:40:00,
2013-02-19 04:45:00,32.4,24.4,29.41,SSE,158,1.6,2.5,72,0.00,,,0.00,WUHU216HW,2013-02-19 09:45:00,
2013-02-19 04:50:00,32.8,24.7,29.41,SSW,203,1.8,2.5,72,0.00,,,0.00,WUHU216HW,2013-02-19 09:50:00,
2013-02-19 04:55:00,32.8,24.7,29.41,SW,225,2.2,2.7,72,0.00,,,0.00,WUHU216HW,2013-02-19 09:55:00,
2013-02-19 05:00:00,32.9,24.8,29.41,SSW,203,1.3,2.7,72,0.00,,,0.00,WUHU216HW,2013-02-19 10:00:00,
2013-02-19 05:05:00,33.1,25.0,29.42,SW,225,3.1,3.1,72,0.00,,,0.00,WUHU216HW,2013-02-19 10:05:00,
2013-02-19 05:10:00,33.3,25.2,29.42,SSE,158,1.1,3.4,72,0.00,,,0.00,WUHU216HW,2013-02-19 10:10:00,
2013-02-19 05:15:00,33.3,24.8,29.41,South,180,0.4,3.4,71,0.00,,,0.00,WUHU216HW,2013-02-19 10:15:00,
2013-02-19 05:20:00,33.1,24.7,29.41,SSW,203,1.1,1.8,71,0.00,,,0.00,WUHU216HW,2013-02-19 10:20:00,
2013-02-19 05:26:00,33.1,24.7,29.41,SE,135,0.4,1.8,71,0.00,,,0.00,WUHU216HW,2013-02-19 10:26:00,
2013-02-19 05:31:00,33.3,24.8,29.41,East,90,0.7,2.9,71,0.00,,,0.00,WUHU216HW,2013-02-19 10:31:00,
2013-02-19 05:36:00,33.3,24.8,29.41,WSW,248,1.8,2.9,71,0.00,,,0.00,WUHU216HW,2013-02-19 10:36:00,
2013-02-19 05:41:00,33.1,24.7,29.41,SSE,158,0.0,2.0,71,0.00,,,0.00,WUHU216HW,2013-02-19 10:41:00,
2013-02-19 05:46:00,32.8,24.4,29.41,SW,225,0.0,2.0,71,0.00,,,0.00,WUHU216HW,2013-02-19 10:46:00,
2013-02-19 05:51:00,32.8,24.4,29.41,ESE,113,0.4,0.9,71,0.00,,,0.00,WUHU216HW,2013-02-19 10:51:00,
2013-02-19 05:56:00,32.8,24.4,29.41,WSW,248,1.3,2.7,71,0.00,,,0.00,WUHU216HW,2013-02-19 10:56:00,
2013-02-19 06:01:00,32.8,24.4,29.41,SW,225,1.1,2.7,71,0.00,,,0.00,WUHU216HW,2013-02-19 11:01:00,
2013-02-19 06:06:00,32.6,23.9,29.41,WSW,248,1.8,1.8,70,0.00,,,0.00,WUHU216HW,2013-02-19 11:06:00,
2013-02-19 06:11:00,32.4,24.0,29.41,SE,135,0.0,1.8,71,0.00,,,0.00,WUHU216HW,2013-02-19 11:11:00,
2013-02-19 06:16:00,32.2,23.9,29.41,WSW,248,0.9,1.6,71,0.00,,,0.00,WUHU216HW,2013-02-19 11:16:00,
2013-02-19 06:21:00,32.0,23.8,29.40,WSW,248,0.0,0.9,71,0.00,,,0.00,WUHU216HW,2013-02-19 11:21:00,
2013-02-19 06:26:00,32.0,23.8,29.40,ESE,113,0.7,0.9,71,0.00,,,0.00,WUHU216HW,2013-02-19 11:26:00,
2013-02-19 06:31:00,32.0,23.8,29.40,SE,135,0.0,1.1,71,0.00,,,0.00,WUHU216HW,2013-02-19 11:31:00,
2013-02-19 06:36:00,32.2,23.9,29.39,SE,135,0.4,1.1,71,0.00,,,0.00,WUHU216HW,2013-02-19 11:36:00,
2013-02-19 06:41:00,32.6,24.2,29.39,SSE,158,1.6,1.6,71,0.00,,,0.00,WUHU216HW,2013-02-19 11:41:00,
2013-02-19 06:46:00,32.8,24.7,29.39,SW,225,0.7,1.6,72,0.00,,,0.00,WUHU216HW,2013-02-19 11:46:00,
2013-02-19 06:51:00,32.9,24.8,29.39,SW,225,1.8,1.8,72,0.00,,,0.00,WUHU216HW,2013-02-19 11:51:00,
2013-02-19 06:56:00,33.1,25.0,29.38,SE,135,1.1,1.8,72,0.00,,,0.00,WUHU216HW,2013-02-19 11:56:00,
2013-02-19 07:01:00,33.5,25.4,29.38,SW,225,1.1,1.8,72,0.00,,,0.00,WUHU216HW,2013-02-19 12:01:00,
2013-02-19 07:06:00,33.7,25.5,29.38,ESE,113,1.6,2.2,72,0.00,,,0.00,WUHU216HW,2013-02-19 12:06:00,
2013-02-19 07:11:00,34.0,25.8,29.38,SSE,158,0.7,2.7,72,0.00,,,0.00,WUHU216HW,2013-02-19 12:11:00,
2013-02-19 07:16:00,34.2,26.0,29.38,SW,225,0.9,2.7,72,0.00,,,0.00,WUHU216HW,2013-02-19 12:16:00,
2013-02-19 07:21:00,34.6,26.7,29.39,SE,135,1.1,4.0,73,0.00,,,0.00,WUHU216HW,2013-02-19 12:21:00,
2013-02-19 07:26:00,34.9,26.7,29.39,SE,135,1.3,4.0,72,0.00,,,0.00,WUHU216HW,2013-02-19 12:26:00,
2013-02-19 07:31:00,35.3,27.1,29.39,SSE,158,4.3,4.7,72,0.00,,,0.00,WUHU216HW,2013-02-19 12:31:00,
2013-02-19 07:36:00,36.0,28.2,29.38,SW,225,4.9,7.2,73,0.00,,,0.00,WUHU216HW,2013-02-19 12:36:00,
2013-02-19 07:41:00,36.5,29.0,29.39,SW,225,5.4,9.6,74,0.00,,,0.00,WUHU216HW,2013-02-19 12:41:00,
2013-02-19 07:46:00,37.1,30.3,29.39,South,180,4.9,9.6,76,0.00,,,0.00,WUHU216HW,2013-02-19 12:46:00,
2013-02-19 07:51:00,36.9,30.1,29.40,South,180,8.9,10.5,76,0.00,,,0.00,WUHU216HW,2013-02-19 12:51:00,
2013-02-19 07:55:00,37.1,31.1,29.40,WSW,248,12.1,12.5,79,0.00,,,0.00,WUHU216HW,2013-02-19 12:55:00,
2013-02-19 08:00:00,37.1,31.8,29.40,SSW,203,8.3,12.5,81,0.01,,,0.01,WUHU216HW,2013-02-19 13:00:00,
2013-02-19 08:05:00,37.1,31.5,29.40,SSW,203,12.1,12.1,80,0.01,,,0.01,WUHU216HW,2013-02-19 13:05:00,
2013-02-19 08:10:00,37.1,31.8,29.40,SW,225,12.1,12.1,81,0.01,,,0.01,WUHU216HW,2013-02-19 13:10:00,
2013-02-19 08:15:00,37.3,31.7,29.40,SSW,203,7.8,12.1,80,0.01,,,0.01,WUHU216HW,2013-02-19 13:15:00,
2013-02-19 08:20:00,37.3,32.2,29.40,SSE,158,8.5,12.1,82,0.01,,,0.01,WUHU216HW,2013-02-19 13:20:00,
2013-02-19 08:25:00,37.4,32.4,29.39,SSW,203,8.3,9.8,82,0.01,,,0.01,WUHU216HW,2013-02-19 13:25:00,
2013-02-19 08:30:00,37.4,32.1,29.39,SSW,203,9.6,9.8,81,0.01,,,0.01,WUHU216HW,2013-02-19 13:30:00,
2013-02-19 08:35:00,37.4,31.9,29.40,SSW,203,4.7,9.8,80,0.01,,,0.01,WUHU216HW,2013-02-19 13:35:00,
2013-02-19 08:40:00,37.4,31.9,29.39,South,180,5.6,8.5,80,0.01,,,0.01,WUHU216HW,2013-02-19 13:40:00,
2013-02-19 08:46:00,37.4,32.4,29.39,SW,225,5.8,7.6,82,0.01,,,0.01,WUHU216HW,2013-02-19 13:46:00,
2013-02-19 08:50:00,37.6,32.6,29.39,SSW,203,7.6,7.6,82,0.01,,,0.01,WUHU216HW,2013-02-19 13:50:00,
2013-02-19 08:55:00,37.6,33.2,29.39,SW,225,8.1,8.7,84,0.02,,,0.03,WUHU216HW,2013-02-19 13:55:00,
2013-02-19 09:01:00,37.6,33.5,29.39,SW,225,9.4,11.4,85,0.01,,,0.03,WUHU216HW,2013-02-19 14:01:00,
2013-02-19 09:06:00,37.8,33.7,29.37,SW,225,14.3,17.9,85,0.01,,,0.03,WUHU216HW,2013-02-19 14:06:00,
2013-02-19 09:11:00,37.6,33.8,29.37,SSW,203,9.8,17.9,86,0.01,,,0.03,WUHU216HW,2013-02-19 14:11:00,
2013-02-19 09:16:00,37.8,33.9,29.37,SSE,158,7.8,14.3,86,0.02,,,0.03,WUHU216HW,2013-02-19 14:16:00,
2013-02-19 09:21:00,37.8,33.9,29.37,WSW,248,9.2,11.2,86,0.02,,,0.03,WUHU216HW,2013-02-19 14:21:00,
2013-02-19 09:26:00,37.8,33.9,29.37,SW,225,5.4,10.5,86,0.02,,,0.03,WUHU216HW,2013-02-19 14:26:00,
2013-02-19 09:31:00,37.8,33.9,29.37,SW,225,6.9,9.6,86,0.02,,,0.03,WUHU216HW,2013-02-19 14:31:00,
2013-02-19 09:36:00,38.0,33.8,29.36,SSE,158,4.0,9.6,85,0.02,,,0.03,WUHU216HW,2013-02-19 14:36:00,
2013-02-19 09:41:00,38.3,34.2,29.36,SSE,158,4.3,7.8,85,0.02,,,0.03,WUHU216HW,2013-02-19 14:41:00,
2013-02-19 09:46:00,38.9,34.5,29.36,SSE,158,4.0,7.8,84,0.02,,,0.03,WUHU216HW,2013-02-19 14:46:00,
2013-02-19 09:51:00,39.6,35.2,29.35,SSW,203,1.8,6.5,84,0.02,,,0.03,WUHU216HW,2013-02-19 14:51:00,
2013-02-19 09:56:00,40.0,35.5,29.35,SSE,158,4.0,5.8,84,0.01,,,0.03,WUHU216HW,2013-02-19 14:56:00,
2013-02-19 10:01:00,40.3,35.6,29.35,SSE,158,1.8,5.8,83,0.01,,,0.03,WUHU216HW,2013-02-19 15:01:00,
2013-02-19 10:06:00,40.3,35.2,29.35,South,180,4.5,4.7,82,0.01,,,0.03,WUHU216HW,2013-02-19 15:06:00,
2013-02-19 10:11:00,40.1,35.1,29.34,SSW,203,5.1,5.1,82,0.01,,,0.03,WUHU216HW,2013-02-19 15:11:00,
2013-02-19 10:16:00,40.1,35.1,29.34,SW,225,5.6,6.3,82,0.00,,,0.03,WUHU216HW,2013-02-19 15:16:00,
2013-02-19 10:21:00,40.0,34.9,29.34,SE,135,4.7,6.9,82,0.00,,,0.03,WUHU216HW,2013-02-19 15:21:00,
2013-02-19 10:26:00,40.0,34.9,29.33,SSW,203,3.1,6.9,82,0.00,,,0.03,WUHU216HW,2013-02-19 15:26:00,
2013-02-19 10:31:00,40.1,35.1,29.33,SSE,158,3.1,4.7,82,0.00,,,0.03,WUHU216HW,2013-02-19 15:31:00,
2013-02-19 10:36:00,40.1,35.1,29.33,SE,135,2.7,3.4,82,0.00,,,0.03,WUHU216HW,2013-02-19 15:36:00,
2013-02-19 10:41:00,40.5,35.4,29.33,SSW,203,4.0,4.0,82,0.00,,,0.03,WUHU216HW,2013-02-19 15:41:00,
2013-02-19 10:46:00,40.5,35.7,29.33,SE,135,3.6,4.3,83,0.00,,,0.03,WUHU216HW,2013-02-19 15:46:00,
2013-02-19 10:51:00,40.9,36.0,29.32,SSE,158,2.2,5.4,83,0.00,,,0.03,WUHU216HW,2013-02-19 15:51:00,
2013-02-19 10:56:00,41.0,35.9,29.32,SSE,158,1.8,5.4,82,0.00,,,0.03,WUHU216HW,2013-02-19 15:56:00,
2013-02-19 11:01:00,41.0,35.9,29.32,SE,135,1.8,4.0,82,0.00,,,0.03,WUHU216HW,2013-02-19 16:01:00,
2013-02-19 11:06:00,40.9,35.7,29.32,SE,135,2.5,3.6,82,0.00,,,0.03,WUHU216HW,2013-02-19 16:06:00,
2013-02-19 11:11:00,40.9,36.0,29.32,SSE,158,3.8,3.8,83,0.00,,,0.03,WUHU216HW,2013-02-19 16:11:00,
2013-02-19 11:16:00,40.9,35.7,29.31,SSE,158,2.9,4.0,82,0.00,,,0.03,WUHU216HW,2013-02-19 16:16:00,
2013-02-19 11:21:00,40.9,35.7,29.31,SSE,158,3.8,4.0,82,0.00,,,0.03,WUHU216HW,2013-02-19 16:21:00,
2013-02-19 11:26:00,40.9,35.7,29.30,SE,135,3.1,3.8,82,0.00,,,0.03,WUHU216HW,2013-02-19 16:26:00,
2013-02-19 11:31:00,40.7,35.8,29.30,SSW,203,4.5,4.7,83,0.00,,,0.03,WUHU216HW,2013-02-19 16:31:00,
2013-02-19 11:36:00,40.7,35.8,29.30,SE,135,2.9,4.7,83,0.00,,,0.03,WUHU216HW,2013-02-19 16:36:00,
2013-02-19 11:41:00,40.7,35.6,29.29,SE,135,2.5,4.5,82,0.00,,,0.03,WUHU216HW,2013-02-19 16:41:00,
2013-02-19 11:46:00,40.9,35.7,29.29,SSE,158,2.7,6.0,82,0.00,,,0.03,WUHU216HW,2013-02-19 16:46:00,
2013-02-19 11:51:00,41.0,35.9,29.28,West,270,4.0,6.0,82,0.00,,,0.03,WUHU216HW,2013-02-19 16:51:00,
2013-02-19 11:56:00,41.9,37.1,29.28,SSW,203,3.8,4.7,83,0.00,,,0.03,WUHU216HW,2013-02-19 16:56:00,
2013-02-19 12:01:00,42.7,37.8,29.28,SW,225,4.0,4.7,83,0.00,,,0.03,WUHU216HW,2013-02-19 17:01:00,
2013-02-19 12:06:00,43.2,38.3,29.28,SW,225,4.0,4.5,83,0.00,,,0.03,WUHU216HW,2013-02-19 17:06:00,
2013-02-19 12:11:00,43.2,38.1,29.27,SW,225,4.7,5.1,82,0.01,,,0.05,WUHU216HW,2013-02-19 17:11:00,
2013-02-19 12:16:00,43.2,38.1,29.27,SSE,158,2.9,5.4,82,0.01,,,0.05,WUHU216HW,2013-02-19 17:16:00,
2013-02-19 12:21:00,43.7,38.6,29.27,SW,225,4.0,5.4,82,0.01,,,0.05,WUHU216HW,2013-02-19 17:21:00,
2013-02-19 12:26:00,44.1,39.0,29.27,SSW,203,4.5,4.5,82,0.01,,,0.05,WUHU216HW,2013-02-19 17:26:00,
2013-02-19 12:31:00,44.3,38.8,29.26,SSE,158,2.9,5.6,81,0.01,,,0.05,WUHU216HW,2013-02-19 17:31:00,
2013-02-19 12:36:00,44.6,39.2,29.25,SE,135,4.7,5.6,81,0.01,,,0.05,WUHU216HW,2013-02-19 17:36:00,
2013-02-19 12:41:00,45.0,39.5,29.25,SE,135,4.7,7.6,81,0.01,,,0.05,WUHU216HW,2013-02-19 17:41:00,
2013-02-19 12:46:00,45.0,39.2,29.25,SE,135,1.6,7.6,80,0.01,,,0.05,WUHU216HW,2013-02-19 17:46:00,
2013-02-19 12:51:00,45.4,39.6,29.24,South,180,5.6,7.6,80,0.01,,,0.05,WUHU216HW,2013-02-19 17:51:00,
2013-02-19 12:56:00,45.5,39.8,29.24,SSE,158,5.8,6.3,80,0.01,,,0.05,WUHU216HW,2013-02-19 17:56:00,
2013-02-19 13:01:00,46.1,40.3,29.23,SSW,203,4.3,6.5,80,0.01,,,0.05,WUHU216HW,2013-02-19 18:01:00,
2013-02-19 13:06:00,46.1,40.0,29.22,SW,225,1.1,6.5,79,0.01,,,0.05,WUHU216HW,2013-02-19 18:06:00,
2013-02-19 13:11:00,46.6,40.5,29.22,SSE,158,3.6,6.7,79,0.00,,,0.05,WUHU216HW,2013-02-19 18:11:00,
2013-02-19 13:16:00,46.6,40.5,29.22,SSE,158,3.4,6.7,79,0.00,,,0.05,WUHU216HW,2013-02-19 18:16:00,
2013-02-19 13:21:00,46.8,40.7,29.22,SSW,203,4.5,4.7,79,0.00,,,0.05,WUHU216HW,2013-02-19 18:21:00,
2013-02-19 13:26:00,46.6,40.5,29.21,South,180,3.4,6.0,79,0.00,,,0.05,WUHU216HW,2013-02-19 18:26:00,
2013-02-19 13:31:00,46.8,40.0,29.21,South,180,5.4,6.3,77,0.00,,,0.05,WUHU216HW,2013-02-19 18:31:00,
2013-02-19 13:36:00,46.8,40.0,29.20,WSW,248,7.6,9.8,77,0.00,,,0.05,WUHU216HW,2013-02-19 18:36:00,
2013-02-19 13:41:00,47.0,40.5,29.20,SSE,158,6.0,9.8,78,0.00,,,0.05,WUHU216HW,2013-02-19 18:41:00,
2013-02-19 13:46:00,47.3,40.8,29.19,SW,225,8.3,13.0,78,0.00,,,0.05,WUHU216HW,2013-02-19 18:46:00,
2013-02-19 13:51:00,47.7,41.1,29.19,WSW,248,10.3,14.5,78,0.00,,,0.05,WUHU216HW,2013-02-19 18:51:00,
2013-02-19 13:56:00,47.9,40.2,29.19,SW,225,10.5,14.5,75,0.00,,,0.05,WUHU216HW,2013-02-19 18:56:00,
2013-02-19 14:01:00,47.9,40.2,29.19,SW,225,11.9,14.5,75,0.00,,,0.05,WUHU216HW,2013-02-19 19:01:00,
2013-02-19 14:06:00,47.9,40.2,29.19,WSW,248,11.0,14.5,75,0.00,,,0.05,WUHU216HW,2013-02-19 19:06:00,
2013-02-19 14:11:00,48.2,41.0,29.19,SSW,203,8.7,12.3,76,0.00,,,0.05,WUHU216HW,2013-02-19 19:11:00,
2013-02-19 14:16:00,48.4,40.4,29.18,WSW,248,12.1,15.0,74,0.00,,,0.05,WUHU216HW,2013-02-19 19:16:00,
2013-02-19 14:21:00,48.4,40.4,29.17,WSW,248,13.2,15.4,74,0.00,,,0.05,WUHU216HW,2013-02-19 19:21:00,
2013-02-19 14:26:00,48.6,40.2,29.17,WSW,248,9.4,18.6,73,0.00,,,0.05,WUHU216HW,2013-02-19 19:26:00,
2013-02-19 14:31:00,48.8,40.8,29.17,SW,225,6.3,18.6,74,0.00,,,0.05,WUHU216HW,2013-02-19 19:31:00,
2013-02-19 14:36:00,48.8,40.8,29.16,West,270,9.4,11.2,74,0.00,,,0.05,WUHU216HW,2013-02-19 19:36:00,
2013-02-19 14:41:00,49.1,40.8,29.16,SW,225,12.5,12.8,73,0.01,,,0.05,WUHU216HW,2013-02-19 19:41:00,
2013-02-19 14:46:00,49.3,40.7,29.16,WSW,248,11.6,12.8,72,0.01,,,0.05,WUHU216HW,2013-02-19 19:46:00,
2013-02-19 14:51:00,49.3,40.7,29.15,WSW,248,8.9,14.5,72,0.01,,,0.05,WUHU216HW,2013-02-19 19:51:00,
2013-02-19 14:56:00,49.3,40.3,29.15,SSW,203,14.3,14.5,71,0.01,,,0.05,WUHU216HW,2013-02-19 19:56:00,
2013-02-19 15:01:00,49.3,40.0,29.16,SW,225,11.6,14.3,70,0.01,,,0.05,WUHU216HW,2013-02-19 20:01:00,
2013-02-19 15:06:00,49.3,40.3,29.16,WSW,248,11.9,14.3,71,0.01,,,0.05,WUHU216HW,2013-02-19 20:06:00,
2013-02-19 15:11:00,49.3,39.6,29.16,WSW,248,11.4,13.9,69,0.01,,,0.05,WUHU216HW,2013-02-19 20:11:00,
2013-02-19 15:16:00,49.3,40.0,29.16,SW,225,7.6,12.8,70,0.01,,,0.05,WUHU216HW,2013-02-19 20:16:00,
2013-02-19 15:21:00,49.3,40.0,29.15,SSW,203,9.8,12.8,70,0.01,,,0.05,WUHU216HW,2013-02-19 20:21:00,
2013-02-19 15:26:00,49.1,39.8,29.16,WSW,248,16.1,16.1,70,0.01,,,0.05,WUHU216HW,2013-02-19 20:26:00,
2013-02-19 15:31:00,48.8,39.4,29.16,WSW,248,6.5,16.1,70,0.01,,,0.05,WUHU216HW,2013-02-19 20:31:00,
2013-02-19 15:36:00,48.8,39.1,29.17,SW,225,9.2,17.2,69,0.01,,,0.05,WUHU216HW,2013-02-19 20:36:00,
2013-02-19 15:41:00,49.0,38.8,29.17,WSW,248,8.5,17.2,68,0.00,,,0.05,WUHU216HW,2013-02-19 20:41:00,
2013-02-19 15:46:00,49.1,39.0,29.17,WSW,248,8.7,11.4,68,0.00,,,0.05,WUHU216HW,2013-02-19 20:46:00,
2013-02-19 15:51:00,49.0,38.4,29.17,WSW,248,15.0,15.0,67,0.00,,,0.05,WUHU216HW,2013-02-19 20:51:00,
2013-02-19 15:56:00,49.0,38.1,29.17,WSW,248,14.3,17.9,66,0.00,,,0.05,WUHU216HW,2013-02-19 20:56:00,
2013-02-19 16:01:00,48.6,38.1,29.17,WSW,248,8.5,17.9,67,0.00,,,0.05,WUHU216HW,2013-02-19 21:01:00,
2013-02-19 16:06:00,48.6,38.5,29.18,WSW,248,6.0,15.7,68,0.00,,,0.05,WUHU216HW,2013-02-19 21:06:00,
2013-02-19 16:11:00,47.9,38.9,29.19,WSW,248,22.6,22.6,71,0.00,,,0.05,WUHU216HW,2013-02-19 21:11:00,
2013-02-19 16:16:00,46.8,37.6,29.19,WSW,248,6.9,25.3,70,0.01,,,0.07,WUHU216HW,2013-02-19 21:16:00,
2013-02-19 16:21:00,46.4,38.3,29.19,West,270,6.3,25.3,73,0.01,,,0.07,WUHU216HW,2013-02-19 21:21:00,
2013-02-19 16:26:00,46.3,38.4,29.18,WSW,248,3.4,12.8,74,0.01,,,0.07,WUHU216HW,2013-02-19 21:26:00,
2013-02-19 16:31:00,46.3,38.8,29.18,SW,225,6.5,9.2,75,0.01,,,0.07,WUHU216HW,2013-02-19 21:31:00,
2013-02-19 16:36:00,46.4,38.3,29.18,WSW,248,9.2,9.8,73,0.01,,,0.07,WUHU216HW,2013-02-19 21:36:00,
2013-02-19 16:41:00,46.3,37.8,29.18,WSW,248,7.8,9.8,72,0.01,,,0.07,WUHU216HW,2013-02-19 21:41:00,
2013-02-19 16:46:00,46.1,37.3,29.17,West,270,5.4,9.2,71,0.01,,,0.07,WUHU216HW,2013-02-19 21:46:00,
2013-02-19 16:51:00,45.9,36.4,29.18,WSW,248,5.8,12.8,69,0.01,,,0.07,WUHU216HW,2013-02-19 21:51:00,
2013-02-19 16:56:00,45.9,36.4,29.18,WSW,248,4.9,12.8,69,0.01,,,0.07,WUHU216HW,2013-02-19 21:56:00,
2013-02-19 17:01:00,45.7,35.7,29.19,West,270,5.8,6.9,68,0.01,,,0.07,WUHU216HW,2013-02-19 22:01:00,
2013-02-19 17:06:00,45.7,35.4,29.19,SW,225,9.6,11.4,67,0.01,,,0.07,WUHU216HW,2013-02-19 22:06:00,
2013-02-19 17:11:00,45.7,35.4,29.19,WSW,248,4.0,11.4,67,0.00,,,0.07,WUHU216HW,2013-02-19 22:11:00,
2013-02-19 17:16:00,45.7,35.4,29.19,SW,225,4.3,9.6,67,0.00,,,0.07,WUHU216HW,2013-02-19 22:16:00,
2013-02-19 17:21:00,45.7,35.4,29.19,SW,225,3.4,6.9,67,0.00,,,0.07,WUHU216HW,2013-02-19 22:21:00,
2013-02-19 17:26:00,45.2,34.5,29.20,WSW,248,3.4,6.9,66,0.00,,,0.07,WUHU216HW,2013-02-19 22:26:00,
2013-02-19 17:31:00,44.8,34.1,29.20,WNW,293,5.4,8.3,66,0.00,,,0.07,WUHU216HW,2013-02-19 22:31:00,
2013-02-19 17:36:00,44.5,32.7,29.20,West,270,12.8,12.8,63,0.00,,,0.07,WUHU216HW,2013-02-19 22:36:00,
2013-02-19 17:41:00,44.5,31.5,29.21,WNW,293,10.3,15.4,60,0.01,,,0.08,WUHU216HW,2013-02-19 22:41:00,
2013-02-19 17:46:00,44.3,31.3,29.22,WSW,248,22.1,23.0,60,0.01,,,0.08,WUHU216HW,2013-02-19 22:46:00,
2013-02-19 17:51:00,43.7,31.1,29.23,WNW,293,21.5,23.5,61,0.01,,,0.08,WUHU216HW,2013-02-19 22:51:00,
2013-02-19 17:56:00,43.2,31.4,29.24,WSW,248,17.0,25.9,63,0.01,,,0.08,WUHU216HW,2013-02-19 22:56:00,
2013-02-19 18:01:00,42.8,31.5,29.24,WSW,248,11.0,25.9,64,0.01,,,0.08,WUHU216HW,2013-02-19 23:01:00,
2013-02-19 18:06:00,42.7,30.9,29.24,WSW,248,14.3,21.5,63,0.01,,,0.08,WUHU216HW,2013-02-19 23:06:00,
2013-02-19 18:11:00,42.5,30.3,29.24,WNW,293,14.1,21.5,62,0.01,,,0.08,WUHU216HW,2013-02-19 23:11:00,
2013-02-19 18:16:00,42.1,29.6,29.24,WSW,248,12.1,17.4,61,0.01,,,0.08,WUHU216HW,2013-02-19 23:16:00,
2013-02-19 18:21:00,42.1,29.6,29.24,West,270,20.8,23.0,61,0.01,,,0.08,WUHU216HW,2013-02-19 23:21:00,
2013-02-19 18:26:00,41.9,29.9,29.24,West,270,14.8,23.0,62,0.01,,,0.08,WUHU216HW,2013-02-19 23:26:00,
2013-02-19 18:31:00,41.8,29.3,29.25,West,270,17.9,23.5,61,0.01,,,0.08,WUHU216HW,2013-02-19 23:31:00,
2013-02-19 18:36:00,41.8,29.3,29.25,WSW,248,18.6,23.5,61,0.01,,,0.08,WUHU216HW,2013-02-19 23:36:00,
2013-02-19 18:41:00,41.6,29.2,29.25,West,270,15.7,18.6,61,0.00,,,0.08,WUHU216HW,2013-02-19 23:41:00,
2013-02-19 18:46:00,41.6,29.2,29.25,WSW,248,8.3,18.6,61,0.00,,,0.08,WUHU216HW,2013-02-19 23:46:00,
2013-02-19 18:51:00,41.4,29.0,29.26,West,270,9.8,15.7,61,0.00,,,0.08,WUHU216HW,2013-02-19 23:51:00,
2013-02-19 18:56:00,41.0,29.0,29.26,West,270,10.1,13.9,62,0.00,,,0.08,WUHU216HW,2013-02-19 23:56:00,
2013-02-19 19:01:00,40.7,28.6,29.26,West,270,13.0,13.4,62,0.00,,,0.08,WUHU216HW,2013-02-20 00:01:00,
2013-02-19 19:06:00,40.7,28.6,29.27,West,270,9.4,13.4,62,0.00,,,0.08,WUHU216HW,2013-02-20 00:06:00,
2013-02-19 19:11:00,40.5,28.4,29.27,West,270,7.6,13.0,62,0.00,,,0.08,WUHU216HW,2013-02-20 00:11:00,
2013-02-19 19:16:00,40.3,28.3,29.27,West,270,11.4,11.4,62,0.00,,,0.08,WUHU216HW,2013-02-20 00:16:00,
2013-02-19 19:21:00,40.1,28.5,29.27,WSW,248,5.8,11.4,63,0.00,,,0.08,WUHU216HW,2013-02-20 00:21:00,
2013-02-19 19:26:00,40.0,28.4,29.27,West,270,7.6,11.4,63,0.00,,,0.08,WUHU216HW,2013-02-20 00:26:00,
2013-02-19 19:31:00,40.0,28.4,29.27,West,270,11.9,12.1,63,0.00,,,0.08,WUHU216HW,2013-02-20 00:31:00,
2013-02-19 19:36:00,40.0,27.9,29.27,WSW,248,14.3,14.3,62,0.00,,,0.08,WUHU216HW,2013-02-20 00:36:00,
2013-02-19 19:41:00,40.0,27.9,29.27,West,270,6.7,14.3,62,0.00,,,0.08,WUHU216HW,2013-02-20 00:41:00,
2013-02-19 19:46:00,40.0,27.2,29.27,WNW,293,5.1,14.3,60,0.00,,,0.08,WUHU216HW,2013-02-20 00:46:00,
2013-02-19 19:51:00,39.8,27.7,29.28,NW,315,6.5,6.7,62,0.00,,,0.08,WUHU216HW,2013-02-20 00:51:00,
2013-02-19 19:56:00,39.6,28.0,29.28,NW,315,1.8,6.5,63,0.00,,,0.08,WUHU216HW,2013-02-20 00:56:00,
2013-02-19 20:01:00,39.2,28.0,29.28,WNW,293,5.4,6.5,64,0.00,,,0.08,WUHU216HW,2013-02-20 01:01:00,
2013-02-19 20:06:00,39.1,27.8,29.28,NW,315,5.1,6.3,64,0.00,,,0.08,WUHU216HW,2013-02-20 01:06:00,
2013-02-19 20:11:00,38.5,28.4,29.28,NW,315,0.9,5.4,67,0.00,,,0.08,WUHU216HW,2013-02-20 01:11:00,
2013-02-19 20:16:00,38.3,28.7,29.29,NW,315,6.0,6.0,68,0.00,,,0.08,WUHU216HW,2013-02-20 01:16:00,
2013-02-19 20:21:00,38.2,28.2,29.29,NW,315,3.6,6.0,67,0.00,,,0.08,WUHU216HW,2013-02-20 01:21:00,
2013-02-19 20:26:00,38.2,28.2,29.29,NW,315,2.9,6.0,67,0.00,,,0.08,WUHU216HW,2013-02-20 01:26:00,
2013-02-19 20:31:00,38.2,28.2,29.29,WNW,293,5.1,7.4,67,0.00,,,0.08,WUHU216HW,2013-02-20 01:31:00,
2013-02-19 20:36:00,38.0,28.0,29.29,NW,315,5.8,7.4,67,0.00,,,0.08,WUHU216HW,2013-02-20 01:36:00,
2013-02-19 20:41:00,38.2,28.2,29.29,West,270,5.6,8.5,67,0.00,,,0.08,WUHU216HW,2013-02-20 01:41:00,
2013-02-19 20:46:00,38.0,28.0,29.29,West,270,6.9,8.7,67,0.00,,,0.08,WUHU216HW,2013-02-20 01:46:00,
2013-02-19 20:51:00,38.0,27.6,29.29,West,270,6.9,8.7,66,0.00,,,0.08,WUHU216HW,2013-02-20 01:51:00,
2013-02-19 20:56:00,38.0,27.6,29.30,WNW,293,10.7,10.7,66,0.00,,,0.08,WUHU216HW,2013-02-20 01:56:00,
2013-02-19 21:01:00,38.0,27.6,29.30,West,270,7.4,10.7,66,0.00,,,0.08,WUHU216HW,2013-02-20 02:01:00,
2013-02-19 21:06:00,37.8,26.6,29.30,West,270,9.8,10.7,64,0.00,,,0.08,WUHU216HW,2013-02-20 02:06:00,
2013-02-19 21:11:00,37.8,26.3,29.30,West,270,9.2,9.8,63,0.00,,,0.08,WUHU216HW,2013-02-20 02:11:00,
2013-02-19 21:16:00,38.0,26.5,29.30,WNW,293,6.9,14.5,63,0.00,,,0.08,WUHU216HW,2013-02-20 02:16:00,
2013-02-19 21:21:00,38.2,24.7,29.30,WNW,293,19.9,19.9,58,0.00,,,0.08,WUHU216HW,2013-02-20 02:21:00,
2013-02-19 21:26:00,38.5,24.9,29.30,West,270,15.0,19.9,58,0.00,,,0.08,WUHU216HW,2013-02-20 02:26:00,
2013-02-19 21:31:00,38.5,24.9,29.30,West,270,7.6,19.9,58,0.00,,,0.08,WUHU216HW,2013-02-20 02:31:00,
2013-02-19 21:36:00,38.3,24.4,29.30,West,270,12.8,16.3,57,0.00,,,0.08,WUHU216HW,2013-02-20 02:36:00,
2013-02-19 21:41:00,38.3,22.6,29.30,WSW,248,14.8,17.9,53,0.00,,,0.08,WUHU216HW,2013-02-20 02:41:00,
2013-02-19 21:46:00,38.5,22.0,29.31,West,270,12.8,18.8,51,0.00,,,0.08,WUHU216HW,2013-02-20 02:46:00,
2013-02-19 21:51:00,38.5,22.8,29.31,West,270,10.7,18.8,53,0.00,,,0.08,WUHU216HW,2013-02-20 02:51:00,
2013-02-19 21:56:00,38.3,21.3,29.31,West,270,13.4,15.0,50,0.00,,,0.08,WUHU216HW,2013-02-20 02:56:00,
2013-02-19 22:01:00,38.2,22.1,29.31,West,270,9.8,15.0,52,0.00,,,0.08,WUHU216HW,2013-02-20 03:01:00,
2013-02-19 22:06:00,38.2,21.6,29.31,West,270,19.0,19.0,51,0.00,,,0.08,WUHU216HW,2013-02-20 03:06:00,
2013-02-19 22:11:00,38.0,21.4,29.31,West,270,10.7,19.0,51,0.00,,,0.08,WUHU216HW,2013-02-20 03:11:00,
2013-02-19 22:16:00,38.0,21.0,29.31,WSW,248,9.6,19.0,50,0.00,,,0.08,WUHU216HW,2013-02-20 03:16:00,
2013-02-19 22:20:00,37.8,21.2,29.32,West,270,5.1,16.8,51,0.00,,,0.08,WUHU216HW,2013-02-20 03:20:00,
2013-02-19 22:26:00,37.4,20.5,29.31,WNW,293,18.3,18.3,50,0.00,,,0.08,WUHU216HW,2013-02-20 03:26:00,
2013-02-19 22:31:00,37.4,21.0,29.32,WNW,293,12.1,18.6,51,0.00,,,0.08,WUHU216HW,2013-02-20 03:31:00,
2013-02-19 22:36:00,37.3,19.4,29.32,NW,315,20.4,20.8,48,0.00,,,0.08,WUHU216HW,2013-02-20 03:36:00,
2013-02-19 22:41:00,37.4,20.0,29.32,WNW,293,11.6,20.8,49,0.00,,,0.08,WUHU216HW,2013-02-20 03:41:00,
2013-02-19 22:46:00,37.4,20.5,29.32,WNW,293,9.4,20.4,50,0.00,,,0.08,WUHU216HW,2013-02-20 03:46:00,
2013-02-19 22:51:00,37.3,20.3,29.32,West,270,12.1,17.9,50,0.00,,,0.08,WUHU216HW,2013-02-20 03:51:00,
2013-02-19 22:56:00,37.1,20.2,29.32,WSW,248,12.8,24.4,50,0.00,,,0.08,WUHU216HW,2013-02-20 03:56:00,
2013-02-19 23:01:00,37.1,20.2,29.31,WNW,293,10.7,24.4,50,0.00,,,0.08,WUHU216HW,2013-02-20 04:01:00,
2013-02-19 23:06:00,36.7,19.9,29.31,West,270,9.2,19.2,50,0.00,,,0.08,WUHU216HW,2013-02-20 04:06:00,
2013-02-19 23:11:00,36.5,20.2,29.31,West,270,14.1,14.1,51,0.00,,,0.08,WUHU216HW,2013-02-20 04:11:00,
2013-02-19 23:16:00,36.4,20.4,29.31,WSW,248,9.8,14.1,52,0.00,,,0.08,WUHU216HW,2013-02-20 04:16:00,
2013-02-19 23:21:00,36.4,20.4,29.32,SW,225,10.3,14.1,52,0.00,,,0.08,WUHU216HW,2013-02-20 04:21:00,
2013-02-19 23:26:00,36.4,20.4,29.31,WSW,248,12.8,17.2,52,0.00,,,0.08,WUHU216HW,2013-02-20 04:26:00,
2013-02-19 23:31:00,36.2,20.3,29.32,West,270,15.7,17.2,52,0.00,,,0.08,WUHU216HW,2013-02-20 04:31:00,
2013-02-19 23:36:00,36.2,20.3,29.32,West,270,11.2,15.7,52,0.00,,,0.08,WUHU216HW,2013-02-20 04:36:00,
2013-02-19 23:41:00,36.0,20.1,29.31,West,270,16.3,21.9,52,0.00,,,0.08,WUHU216HW,2013-02-20 04:41:00,
2013-02-19 23:46:00,36.0,20.5,29.31,SW,225,7.6,21.9,53,0.00,,,0.08,WUHU216HW,2013-02-20 04:46:00,
2013-02-19 23:51:00,35.8,20.3,29.31,South,180,3.4,16.6,53,0.00,,,0.08,WUHU216HW,2013-02-20 04:51:00,
2013-02-19 23:56:00,35.6,20.6,29.31,WSW,248,2.9,11.0,54,0.00,,,0.08,WUHU216HW,2013-02-20 04:56:00,